Find Starlink 3651

NORAD ID: 51985 Int'l Des: 2022-025 Owner: SPXS Country: US Constellation: starlink operational
LEOCIRCULAR

Current View

Loading 3D Globe...

About Starlink 3651

Description loading...

Upcoming Passes

Passes for default location (London). Set your location on the main map for personalized predictions.

Altitude History

Loading altitude history...

Two-Line Element Set

1 51985U 22025AF 26150.94168279 -.00001077 00000-0 -49623-4 0 9994
2 51985 53.1947 29.8768 0001526 121.7880 238.3261 15.08809658233474
Epoch: May 30, 2026 • Age: 12 hours

Current Status

Altitude 558.8 km
Velocity 7.58 km/s
Sub-Earth Point -51.90°S, 97.61°W
Launch Date Mar 9, 2022
Age 4.2 years
Type internet

Technical Details

Classification Payload
Mass 297.00 kg
Dry Mass 275.00 kg
Total Mass 297.00 kg
Length 0.20 m
Diameter 2.80 m
Span 9.00 m
Shape Box + pan
Manufacturer SPXS
Bus Type Starlink
Phase Status In Orbit
Owner/State SPXS/US

Most Searched